TimeEDT,TemperatureF,Dew PointF,Humidity,Sea Level PressureIn,VisibilityMPH,Wind Direction,Wind SpeedMPH,Gust SpeedMPH,PrecipitationIn,Events,Conditions,WindDirDegrees,DateUTC
12:15 AM,71.6,62.6,73,29.99,10.0,NNE,4.6,-,N/A,,Clear,20,2012-10-25 04:15:00
12:35 AM,69.8,62.6,78,29.99,10.0,NE,3.5,-,N/A,,Clear,40,2012-10-25 04:35:00
12:55 AM,69.8,62.6,78,29.98,10.0,NNE,3.5,-,N/A,,Clear,30,2012-10-25 04:55:00
1:35 AM,69.8,62.6,78,29.97,10.0,NNE,3.5,-,N/A,,Clear,30,2012-10-25 05:35:00
1:55 AM,68.0,60.8,78,29.97,10.0,NNE,3.5,-,N/A,,Clear,20,2012-10-25 05:55:00
2:35 AM,66.2,62.6,88,29.95,10.0,NNE,3.5,-,N/A,,Clear,30,2012-10-25 06:35:00
2:55 AM,66.2,60.8,83,29.95,10.0,NNE,3.5,-,N/A,,Clear,30,2012-10-25 06:55:00
3:35 AM,66.2,59.0,78,29.93,10.0,North,4.6,-,N/A,,Clear,10,2012-10-25 07:35:00
3:55 AM,62.6,60.8,94,29.93,10.0,North,4.6,-,N/A,,Partly Cloudy,10,2012-10-25 07:55:00
4:15 AM,66.2,60.8,83,29.92,10.0,North,4.6,-,N/A,,Scattered Clouds,10,2012-10-25 08:15:00
4:35 AM,66.2,62.6,88,29.92,10.0,NNE,3.5,-,N/A,,Mostly Cloudy,30,2012-10-25 08:35:00
4:55 AM,66.2,62.6,88,29.93,10.0,Calm,Calm,-,N/A,,Mostly Cloudy,0,2012-10-25 08:55:00
5:15 AM,68.0,62.6,83,29.93,8.0,North,3.5,-,N/A,,Overcast,10,2012-10-25 09:15:00
5:35 AM,66.2,62.6,88,29.93,10.0,NE,4.6,-,N/A,,Overcast,40,2012-10-25 09:35:00
5:55 AM,68.0,62.6,83,29.93,10.0,NNE,4.6,-,N/A,,Overcast,20,2012-10-25 09:55:00
6:15 AM,68.0,64.4,88,29.93,10.0,NNE,3.5,-,N/A,,Overcast,20,2012-10-25 10:15:00
6:35 AM,69.8,64.4,83,29.94,10.0,NNE,3.5,-,N/A,,Overcast,20,2012-10-25 10:35:00
6:50 AM,69.8,64.4,83,29.94,8.0,NE,3.5,-,N/A,,Overcast,40,2012-10-25 10:50:00
7:50 AM,69.8,64.4,83,29.95,6.0,NNE,3.5,-,N/A,,Overcast,30,2012-10-25 11:50:00
8:50 AM,69.8,64.4,83,29.96,6.0,North,5.8,-,N/A,,Mostly Cloudy,10,2012-10-25 12:50:00
9:50 AM,73.4,66.2,78,29.96,6.0,North,6.9,-,N/A,,Mostly Cloudy,10,2012-10-25 13:50:00
10:50 AM,77.0,66.2,69,29.95,10.0,NE,5.8,-,N/A,,Scattered Clouds,40,2012-10-25 14:50:00
11:50 AM,80.6,64.4,58,29.94,10.0,ENE,6.9,16.1,N/A,,Mostly Cloudy,70,2012-10-25 15:50:00
12:50 PM,84.2,62.6,48,29.92,10.0,ENE,9.2,21.9,N/A,,Scattered Clouds,60,2012-10-25 16:50:00
1:50 PM,84.2,62.6,48,29.88,10.0,NE,5.8,16.1,N/A,,Scattered Clouds,50,2012-10-25 17:50:00
2:50 PM,84.2,62.6,48,29.87,10.0,NE,8.1,13.8,N/A,,Mostly Cloudy,50,2012-10-25 18:50:00
3:50 PM,82.4,62.6,51,29.87,6.0,ENE,12.7,19.6,N/A,Rain,Light Rain,70,2012-10-25 19:50:00
4:50 PM,75.2,66.2,73,29.89,5.0,ENE,11.5,17.3,N/A,Rain,Rain,70,2012-10-25 20:50:00
5:50 PM,73.4,66.2,78,29.90,5.0,North,5.8,-,N/A,Rain,Light Rain,10,2012-10-25 21:50:00
6:50 PM,73.4,66.2,78,29.90,7.0,NNE,4.6,-,N/A,,Mostly Cloudy,20,2012-10-25 22:50:00
7:55 PM,73.4,66.2,78,29.90,10.0,NNE,6.9,-,N/A,,Clear,20,2012-10-25 23:55:00
8:15 PM,73.4,66.2,78,29.91,10.0,North,4.6,-,N/A,,Clear,10,2012-10-26 00:15:00
8:35 PM,71.6,66.2,83,29.90,10.0,NNE,4.6,-,N/A,,Clear,30,2012-10-26 00:35:00
8:55 PM,71.6,66.2,83,29.90,10.0,NNE,6.9,-,N/A,,Clear,30,2012-10-26 00:55:00
9:15 PM,73.4,64.4,73,29.90,10.0,NNE,6.9,-,N/A,,Clear,30,2012-10-26 01:15:00
9:35 PM,73.4,64.4,73,29.89,10.0,North,6.9,-,N/A,,Clear,10,2012-10-26 01:35:00
9:55 PM,71.6,66.2,83,29.89,10.0,NNE,6.9,-,N/A,,Clear,20,2012-10-26 01:55:00
10:15 PM,71.6,64.4,78,29.90,10.0,North,6.9,-,N/A,,Clear,10,2012-10-26 02:15:00
10:35 PM,69.8,66.2,88,29.89,10.0,NNE,8.1,-,N/A,,Clear,20,2012-10-26 02:35:00
10:55 PM,71.6,64.4,78,29.89,10.0,North,8.1,-,N/A,,Clear,10,2012-10-26 02:55:00
11:15 PM,71.6,64.4,78,29.89,10.0,North,8.1,-,N/A,,Clear,10,2012-10-26 03:15:00
11:35 PM,73.4,64.4,73,29.88,10.0,NNE,8.1,-,N/A,,Clear,20,2012-10-26 03:35:00
11:55 PM,71.6,66.2,83,29.88,10.0,North,8.1,-,N/A,,Clear,10,2012-10-26 03:55:00